OBJECT B, 51825

Orbit data source: Space-Track

You're viewing an Uncataloged Satellite

Recently launched and/or uncataloged satellites may have evolving metadata. Metadata may include but not limited to: Owner, Maufacturer, Bus, Motor, and Mission.

OBJECT B, 51825 is a Chinese satellite in SSO that was launched on Sun, 27 Feb 2022 UTC via a CHANG ZHENG 8 launch vehicle from the Wenchang Satellite Launch Center (WSC). Unknown objects in Earth's orbit typically refer to objects detected orbiting the Earth but have not yet been identified or cataloged. These objects could be anything from previously untracked satellites, spent rocket stages, debris from satellite collisions, or even natural meteoroids temporarily captured by Earth's gravity.

Not visible in the next 10 days
Identifier
51825, 2022-019B
Orbit
SSO
Country
Flag of CNCN / PRC
Related business
None
Manufacturer
Unknown
Mission
Non-operational Civil Imaging
Bus & Motor
Unknown
Mass
Unknown
Launch date (UTC)
2022-02-27 (4 years ago)
Launch vehicle
CHANG ZHENG 8
Launch site
Wenchang Satellite Launch Center (WSC)
Object type
Unknown
Shape & HBR
Box + 2 Pan, 1.0 m
Radar Cross Section
0.583 m², Medium (>0.1 m² and < 1m²)

Expand to show TLE details & history
Last TLE update: 4 hours ago

TLE from 4 hours ago
0 OBJECT B
1 51825U 22019B   26095.53788032  .00083967  00000-0  83737-3 0  9997
2 51825  97.3498 183.9730 0005185  38.1041 322.0585 15.65377032228365
Epoch: 2026-04-05T12:54Z
TLE epoch observation values (Epoch: 2026-04-05T12:54:32.859Z)
Latitude
0.00001°
Longitude
156.49421°
Altitude
372.548 km
Speed
7.688 km/s
True Right ascension
12h 15m 53s
True Declination
0° 00' 00"
Sunlit
Object was in full shadow at epoch
Visualization orbit readout
Latitude
Unknown
Longitude
Unknown
Altitude
Unknown
Speed
Unknown
Apparent Right ascension
Unknown
Apparent Declination
Unknown
Sunlit
N/A
Visualization observer readout
Local Sidereal Time
23:16:51
Azimuth
Unknown
Elevation
Unknown
Doppler factor
Unknown
Orbital elements
Apogee altitude
372.556 km
Perigee altitude
365.559 km
Semi-major axis
6,747.195 km
Eccentricity
0.00052
Inclination
97.3498°
RAAN
183.973°
Arg. of periapsis
38.1041°
True anomaly
322.02195°
Mean anomaly
322.0585°
Eccentric anomaly
322.04023°
Mean motion
3.91614 °/min
Orbital period
91.93 mins
BSTAR
0.00083737
Loading maneuver chart data...
Computing Atmospheric mass density...
Loading historical data...
Loading historical data...
Loading historical data...
Loading historical data...
Loading historical data...
Loading historical data...
Loading historical data...

Documentation

Showing up to 5 results
|